www.pogodaiklimat.ru

Погода и климат >> Архив погоды >> Австралия >> Южная Австралия >> Порт-Линкольн


ПОГОДА в Порт-Линкольне

  • Прогноз погоды в Порт-Линкольне
  • Монитор погоды в Порт-Линкольне

АРХИВ ПОГОДЫ в Порт-Линкольне

Время (UTC), дата Ветер
(напр.,м/с)
 
Видим.   Явления Облачность Т
(С)
Тd
(С)
f
(%)
Тe
(С)
Тes
(С)
Комфортность P
(гПа)
Po
(гПа)
Тmin
(С)
Tmax
(С)
R
(мм)
R24
(мм)
S
(см)
22 11.07 З 8 н/о н/о +13.0 +9.4 79 +10 +10 1015.1 1014.1
23 11.07 З 8 н/о 8/8 300 м
[]
+13.6 +9.8 78 +11 +11 1015.3 1014.3 2
01 12.07 З 9 н/о н/о +14.0 +11.7 86 +11 +11 1015.9 1014.9
02 12.07 З 10 5000 м в посл. час дождь {туман} 8/8 600 м
[]
+13.1 +11.0 87 +10 +10 1016.0 1015.0 +12.3
04 12.07 З 11 н/о н/о +12.6 +8.9 78 +9 +9 1015.5 1014.5
05 12.07 З 11 н/о {туман} 10/10 1000 м
[]
+14.0 +6.4 60 +11 +11 1015.2 1014.2 2
07 12.07 З 9 н/о н/о +11.2 +7.9 80 +7 +7 1016.6 1015.6
08 12.07 ЮЗ 8 н/о в посл. час дождь {туман} 10/10 600 м
[]
+9.8 +8.1 89 +6 +6 1017.6 1016.6
10 12.07 ЮЗ 6 н/о н/о +9.8 +5.6 75 +7 +7 1019.2 1018.2
11 12.07 ЮЗ 7 н/о {туман} н/о +9.8 +4.0 67 +6 +6 1020.1 1019.1 1
13 12.07 ЮЗ 5 н/о н/о +8.2 +4.6 78 +5 +5 1021.5 1020.5
14 12.07 З 6 н/о в посл. час дождь {туман} 5/5 1000 м
[]
+7.8 +4.6 80 +4 +4 1021.9 1020.9 +15.1
16 12.07 З 6 н/о н/о +7.9 +5.2 83 +4 +4 1022.6 1021.6
17 12.07 З 5 н/о {туман} 3/0 2000 м
[]
+7.9 +4.8 81 +4 +4 1023.1 1022.1 0.4
19 12.07 ЮЗ 7 н/о н/о +8.7 +5.3 79 +5 +5 1024.1 1023.1
20 12.07 ЮЗ 6 н/о {туман} 3/3 1000 м
[]
+8.6 +5.0 78 +5 +5 1024.8 1023.8
22 12.07 ЮЗ 4 н/о н/о +8.2 +5.8 85 +5 +5 1026.5 1025.5
23 12.07 З 5 н/о {туман} 4/4 1000 м
[]
+8.6 +5.7 82 +5 +5 1027.7 1026.7 4
01 13.07 ЮЗ 6 н/о н/о +12.2 +6.5 68 +10 +10 1029.4 1028.4
02 13.07 ЮЗ 5 н/о в посл. час дождь {туман} 10/10 600 м
[]
+11.4 +8.3 81 +9 +9 1029.8 1028.8 +7.0
04 13.07 ЮЗ 12 н/о н/о +12.1 +6.8 70 +8 +8 1029.1 1028.1
05 13.07 ЮЗ 6 н/о {туман} 10/10 1000 м
[]
+13.8 +5.9 59 +12 +12 1029.4 1028.4 0.6
07 13.07 З 5 н/о н/о +11.9 +6.0 67 +10 +10 1030.7 1029.7
08 13.07 ЮЗ 4 н/о 1/1 1000 м
[]
+10.2 +5.4 72 +8 +8 1031.3 1030.3
10 13.07 З 3 н/о н/о +8.1 +6.4 89 +5 +5 1032.2 1031.2
11 13.07 З 4 н/о 8/8 1000 м
[]
+8.0 +6.3 89 +5 +5 1032.6 1031.6
13 13.07 З 4 н/о н/о +9.3 +7.6 89 +6 +6 1032.4 1031.4
14 13.07 З 4 н/о 10/10 1000 м
[]
+9.9 +7.5 85 +7 +7 1032.0 1031.0 +14.4
17 13.07 З 4 н/о 10/10 600 м
[]
+10.9 +8.0 82 +9 +9 1031.4 1030.4
19 13.07 СЗ 4 н/о н/о +10.5 +8.6 88 +8 +8 1030.9 1029.9
20 13.07 З 3 н/о 10/10 300 м
[]
+9.3 +7.7 90 +7 +7 1031.1 1030.1
22 13.07 З 4 н/о н/о +9.6 +8.8 95 +7 +7 1032.0 1031.0
23 13.07 З 4 н/о 10/10 600 м
[]
+11.1 +10.3 95 +9 +9 1032.6 1031.6 0.6
01 14.07 З 5 н/о н/о +12.9 +9.2 78 +11 +11 1032.7 1031.7
02 14.07 З 7 н/о 10/10 600 м
[]
+13.7 +8.7 72 +11 +11 1032.6 1031.6 +7.4
04 14.07 З 8 н/о н/о +14.1 +7.6 65 +12 +12 1031.2 1030.2
05 14.07 З 7 н/о 9/9 1000 м
[]
+13.7 +8.3 70 +11 +11 1030.8 1029.8
07 14.07 З 6 н/о н/о +13.2 +9.1 76 +11 +11 1030.9 1029.9
08 14.07 ЮЗ 6 9000 м туман местами 8/8 300 м
[]
+12.0 +10.1 88 +9 +9 1030.9 1029.9
10 14.07 ЮЗ 4 н/о н/о +11.5 +9.1 85 +9 +9 1031.6 1030.6
11 14.07 ЮЗ 5 н/о {туман} 10/10 600 м
[]
+11.7 +8.2 79 +9 +9 1031.7 1030.7 0.2
13 14.07 З 5 н/о н/о +11.9 +7.4 74 +9 +9 1031.1 1030.1
14 14.07 ЮЗ 4 4000 м 10/10 300 м
[]
+11.0 +7.9 81 +9 +9 1031.1 1030.1 +14.4
16 14.07 З 4 н/о н/о +10.9 +9.8 93 +8 +8 1030.9 1029.9
17 14.07 З 3 н/о 10/10 600 м
[]
+10.0 +8.8 92 +8 +8 1030.7 1029.7
19 14.07 ЮЗ 3 н/о н/о +10.6 +9.5 93 +8 +8 1029.9 1028.9
20 14.07 ЮЗ 4 н/о 10/10 600 м
[]
+10.8 +9.1 89 +8 +8 1030.2 1029.2
22 14.07 З 4 н/о н/о +11.1 +8.8 86 +9 +9 1031.3 1030.3
23 14.07 З 4 н/о 9/9 600 м
[]
+11.5 +9.1 85 +9 +9 1032.0 1031.0 0.2
01 15.07 ЮЗ 5 н/о н/о +12.7 +9.3 80 +11 +11 1033.1 1032.1
02 15.07 ЮЗ 4 н/о 10/10 600 м
[]
+13.3 +9.9 80 +12 +12 1033.2 1032.2 +8.7
04 15.07 ЮЗ 6 н/о н/о +13.6 +10.2 80 +12 +12 1031.4 1030.4
05 15.07 ЮЗ 5 н/о 10/10 300 м
[]
+14.0 +10.0 77 +12 +12 1030.8 1029.8
07 15.07 ЮЗ 5 н/о н/о +13.2 +10.6 84 +11 +11 1030.6 1029.6
08 15.07 З 3 н/о 10/10 300 м
[]
+12.4 +11.1 92 +11 +11 1031.0 1030.0
10 15.07 ЮЗ 2 н/о н/о +11.0 +10.1 94 +10 +10 1031.5 1030.5
11 15.07 З 3 н/о 9/9 100 м
[]
+11.1 +10.5 96 +9 +9 1031.5 1030.5
13 15.07 З 3 н/о н/о +10.8 +10.3 97 +9 +9 1031.4 1030.4
14 15.07 З 3 н/о 9/9 100 м
[]
+10.3 +9.8 97 +8 +8 1031.1 1030.1 +15.0
16 15.07 З 3 н/о н/о +10.6 +10.3 98 +9 +9 1030.4 1029.4
17 15.07 З 3 3500 м 10/10 100 м
[]
+10.8 +10.5 98 +9 +9 1030.2 1029.2
19 15.07 СЗ 3 н/о н/о +10.1 +9.8 98 +8 +8 1029.5 1028.5
20 15.07 СЗ 2 н/о 10/10 300 м
[]
+10.0 +9.7 98 +8 +8 1029.5 1028.5
22 15.07 СЗ 3 н/о н/о +9.7 +9.4 98 +7 +7 1030.2 1029.2
23 15.07 С 3 н/о 6/6 600 м
[]
+10.7 +10.2 97 +9 +9 1030.3 1029.3
01 16.07 ЮЗ 3 н/о н/о +13.5 +11.9 90 +12 +12 1030.8 1029.8
02 16.07 ЮЗ 3 н/о 10/10 600 м
[]
+13.9 +11.8 87 +13 +13 1030.4 1029.4 +8.8
04 16.07 СЗ 4 н/о н/о +15.3 +11.9 80 +14 +14 1028.5 1027.5
05 16.07 ЮЗ 4 н/о 10/10 600 м
[]
+14.6 +12.8 89 +13 +13 1027.9 1026.9
07 16.07 З 4 н/о н/о +15.2 +12.7 85 +14 +14 1027.7 1026.7
08 16.07 З 4 н/о 10/10 300 м
[]
+13.1 +11.8 92 +11 +11 1027.6 1026.6
10 16.07 З 5 н/о н/о +11.5 +10.7 95 +9 +9 1028.1 1027.1
11 16.07 З 4 н/о 10/10 600 м
[]
+11.3 +10.4 94 +9 +9 1028.2 1027.2
13 16.07 З 3 н/о н/о +11.2 +8.8 85 +9 +9 1027.4 1026.4
14 16.07 З 4 н/о 10/10 600 м
[]
+11.3 +8.3 82 +9 +9 1027.2 1026.2 +15.8
16 16.07 З 5 н/о н/о +11.4 +7.9 79 +9 +9 1025.9 1024.9
17 16.07 З 5 н/о 10/10 600 м
[]
+10.9 +7.6 80 +8 +8 1025.4 1024.4
19 16.07 З 4 н/о н/о +11.2 +7.9 80 +9 +9 1024.4 1023.4
20 16.07 З 4 н/о 10/10 600 м
[]
+11.1 +7.0 76 +9 +9 1024.3 1023.3
22 16.07 З 5 н/о н/о +11.3 +7.6 78 +9 +9 1024.7 1023.7
23 16.07 З 3 н/о 10/10 1000 м
[]
+11.5 +8.2 80 +10 +10 1024.8 1023.8
01 17.07 З 6 н/о н/о +12.8 +9.4 80 +10 +10 1025.1 1024.1
04 17.07 З 8 н/о н/о +14.1 +8.7 70 +12 +12 1023.0 1022.0
05 17.07 З 6 н/о {туман} 9/9 1000 м
[]
+14.6 +9.0 69 +13 +13 1022.6 1021.6 0.2
07 17.07 З 5 н/о н/о +13.6 +8.4 71 +12 +12 1022.5 1021.5
08 17.07 З 4 н/о 8/8 1000 м
[]
+11.7 +8.6 81 +9 +9 1022.6 1021.6
10 17.07 СЗ 5 н/о н/о +10.1 +8.2 88 +7 +7 1022.9 1021.9
11 17.07 СЗ 6 н/о н/о +9.9 +8.0 88 +6 +6 1023.0 1022.0
13 17.07 СЗ 5 н/о н/о +9.9 +8.5 91 +7 +7 1022.7 1021.7
14 17.07 СЗ 7 н/о н/о +10.5 +8.8 89 +7 +7 1022.1 1021.1 +15.5
16 17.07 СЗ 4 н/о н/о +9.2 +7.6 90 +6 +6 1021.2 1020.2
17 17.07 СЗ 5 н/о н/о +8.4 +7.3 93 +5 +5 1020.9 1019.9
19 17.07 СЗ 3 н/о н/о +8.3 +7.2 93 +5 +5 1020.1 1019.1
20 17.07 штиль 0 н/о н/о +7.7 +6.6 93 +7 +7 1020.1 1019.1
22 17.07 СЗ 3 н/о н/о +10.4 +9.0 91 +8 +8 1020.7 1019.7
23 17.07 СЗ 6 н/о н/о +11.0 +9.4 90 +8 +8 1021.0 1020.0 0.2
01 18.07 СЗ 9 н/о н/о +13.9 +10.5 80 +11 +11 1020.2 1019.2
02 18.07 СЗ 11 н/о н/о +14.0 +10.2 78 +11 +11 1019.6 1018.6 +7.3
04 18.07 СЗ 12 н/о н/о +14.4 +9.0 70 +12 +12 1018.5 1017.5
05 18.07 СЗ 10 н/о н/о +14.4 +9.2 71 +12 +12 1018.2 1017.2
07 18.07 СЗ 8 н/о н/о +13.7 +9.9 78 +11 +11 1018.5 1017.5
08 18.07 СЗ 7 н/о н/о +12.6 +9.8 83 +10 +10 1018.4 1017.4
10 18.07 СЗ 5 н/о н/о +11.0 +9.8 92 +8 +8 1019.2 1018.2
11 18.07 С 3 н/о н/о +10.4 +9.3 93 +8 +8 1019.7 1018.7
13 18.07 СЗ 4 н/о н/о +10.8 +9.9 94 +8 +8 1020.1 1019.1
16 18.07 штиль 0 н/о н/о +10.2 +9.4 95 +9 +9 1020.1 1019.1
17 18.07 С 3 н/о н/о +9.5 +8.6 94 +7 +7 1019.9 1018.9
19 18.07 С 3 н/о н/о +8.6 +8.0 96 +6 +6 1019.4 1018.4
20 18.07 СЗ 3 н/о {туман} н/о +9.0 +8.6 97 +6 +6 1019.4 1018.4

 

Местоположение метеостанции Порт-Линкольн (Южная Австралия, Австралия): широта -34.60 долгота 135.88 высота над уровнем моря 8 м.

В архиве по умолчанию представлена погода в Порт-Линкольне за последнюю неделю. Архивные данные за месяц целиком и за предыдущие месяцы, начиная с января 2011 года, Вы можете получить, выбрав интересующий диапазон дат из раскрывающегося списка и нажав кнопку "Ввод!".


*Определитесь, кто Вы:
робот инопланетянин человек

Внимание! Время в таблицах - всемирное. Для получения местного времени необходимо прибавить поправку, которая равна 9.5 ч.

Смотрите также архив погоды в соседних городах и на ближайших метеорологических станциях:

Погода в Камминсе (Южная Австралия, Австралия) (42 км)
Погода в Колте (Южная Австралия, Австралия) (53 км)
Погода на Острове Нептун (Южная Австралия, Австралия) (84 км)
Погода в Кливе аэропорту (Южная Австралия, Австралия) (113 км)
Погода в Стенхаус Бэй (Южная Австралия, Австралия) (122 км)
Погода в Кейп Борда (Южная Австралия, Австралия) (144 км)
Погода в Минлатоне (Южная Австралия, Австралия) (151 км)
Погода в Мунте (Южная Австралия, Австралия) (166 км)
Погода в Уудинне (Южная Австралия, Австралия) (177 км)
Погода в Эдитбурге (Южная Австралия, Австралия) (178 км)

Пояснения к столбцам:

Ветер - указаны скорость ветра в м/с - средняя за 10 мин, порывы в срок и между сроками (в фигурных скобках) и направление, откуда дует ветер: С - северный, СВ - северо-восточный, В - восточный, ЮВ - юго-восточный, Ю - южный, ЮЗ - юго-западный, З - западный, СЗ - северо-западный.
Видимость - горизонтальная дальность видимости в метрах или километрах. При видимости от 1 до 10 км при отсутствии осадков обычно наблюдается дымка, при ухудшении видимости до 1 км и менее - туман. В сухую погоду видимость может ухудшаться дымом, пылью или мглою.
Явления - указаны атмосферные явления, наблюдавшиеся в срок или в последний час перед сроком; фигурными скобками обозначены явления, наблюдавшиеся между сроками (за 1-3 часа до срока); квадратными скобками обозначены град или гололедные отложения с указанием их диаметра в мм.
Облачность - указаны через наклонную черту общая и нижняя облачность в баллах и высота нижней границы облаков в метрах; квадратными скобками обозначены формы облаков: Ci - перистые, Cs - перисто-слоистые, Cc - перисто-кучевые, Ac - высококучевые, As - высокослоистые, Sc - слоисто-кучевые, Ns - слоисто-дождевые, Cu - кучевые, Cb - кучево-дождевые. Подробнее классификацию облаков см. в Атласе облаков (PDF).
T - Температура воздуха - температура, измеренная на высоте 2 м над землей.
Td - Температура точки росы - температура, при понижении до которой содержащийся в воздухе водяной пар достигнет насыщения.
f - Относительная влажность воздуха - влажноcть воздуха, измеренная на высоте 2 м над землей.
Te - Эффективная температура - температура, которую ощущает одетый по сезону человек в тени. Характеристика душности погоды. При расчете учитывается влияние влажности воздуха и скорости ветра на теплоощущения человека.
Tes - Эффективная температура на солнце - температура, которую ощущает человек, с поправкой на солнечный нагрев. Характеристика знойности погоды. Зависит от высоты солнца над горизонтом, облачности и скорости ветра. Ночью, в пасмурную погоду, а также при ветре 12 м/с и более поправка равна нулю.
P - Атмосферное давление - приведенное к уровню моря атмосферное давление.
Po - Атмосферное давление - измеренное на уровне метеостанции атмосферное давление.
Tmin - Минимальная температура - минимум температуры воздуха на высоте 2 м над землей.
Tmax - Максимальная температура - максимум температуры воздуха на высоте 2 м над землей.
R - Количество осадков - Количество выпавших осадков за период времени, мм. При наведении курсора мыши на число - период времени, за который выпало указанное количество осадков.
R24 - Количество осадков - Количество выпавших осадков за 24 часа, мм.
S - Снежный покров - Высота снежного покрова, см. При наведении курсора мыши на число - состояние снежного покрова и степень покрытия местности в баллах.